TimeEDT,TemperatureF,Dew PointF,Humidity,Sea Level PressureIn,VisibilityMPH,Wind Direction,Wind SpeedMPH,Gust SpeedMPH,PrecipitationIn,Events,Conditions,WindDirDegrees,DateUTC
12:56 AM,35.1,33.1,92,30.19,10.0,SW,3.5,-,0.01,,Clear,230,2012-10-08 04:56:00
1:56 AM,32.0,30.9,96,30.20,7.0,Calm,Calm,-,N/A,,Clear,0,2012-10-08 05:56:00
2:56 AM,33.1,32.0,96,30.22,8.0,Calm,Calm,-,0.01,,Clear,0,2012-10-08 06:56:00
3:56 AM,34.0,32.0,92,30.21,10.0,WSW,4.6,-,N/A,,Mostly Cloudy,250,2012-10-08 07:56:00
4:56 AM,32.0,30.0,92,30.23,10.0,Calm,Calm,-,0.01,,Clear,0,2012-10-08 08:56:00
5:56 AM,30.9,30.0,96,30.23,10.0,Calm,Calm,-,N/A,,Clear,0,2012-10-08 09:56:00
6:56 AM,32.0,30.9,96,30.25,9.0,Calm,Calm,-,0.01,,Overcast,0,2012-10-08 10:56:00
7:56 AM,32.0,30.9,96,30.26,8.0,Calm,Calm,-,N/A,,Clear,0,2012-10-08 11:56:00
8:56 AM,36.0,34.0,93,30.25,8.0,Calm,Calm,-,N/A,,Clear,0,2012-10-08 12:56:00
9:56 AM,43.0,37.0,80,30.26,10.0,Calm,Calm,-,N/A,,Clear,0,2012-10-08 13:56:00
10:56 AM,46.0,36.0,68,30.27,10.0,Calm,Calm,-,N/A,,Partly Cloudy,0,2012-10-08 14:56:00
11:56 AM,46.9,32.0,56,30.26,10.0,WNW,4.6,-,N/A,,Overcast,290,2012-10-08 15:56:00
12:56 PM,48.9,30.0,48,30.27,10.0,SW,5.8,-,N/A,,Partly Cloudy,230,2012-10-08 16:56:00
1:56 PM,48.9,32.0,52,30.23,10.0,Variable,3.5,17.3,N/A,,Mostly Cloudy,0,2012-10-08 17:56:00
2:56 PM,51.1,33.1,50,30.22,10.0,South,9.2,18.4,N/A,,Mostly Cloudy,180,2012-10-08 18:56:00
4:56 PM,48.9,32.0,52,30.21,10.0,SSW,8.1,-,N/A,,Mostly Cloudy,200,2012-10-08 20:56:00
5:56 PM,48.9,32.0,52,30.20,10.0,SSW,4.6,-,N/A,,Scattered Clouds,200,2012-10-08 21:56:00
6:56 PM,45.0,34.0,65,30.20,10.0,South,4.6,-,N/A,,Partly Cloudy,180,2012-10-08 22:56:00
7:56 PM,37.0,34.0,89,30.21,10.0,Calm,Calm,-,N/A,,Clear,0,2012-10-08 23:56:00
8:56 PM,39.0,35.1,86,30.20,10.0,Calm,Calm,-,0.00,Rain,Light Rain,0,2012-10-09 00:56:00
10:56 PM,34.0,32.0,92,30.22,9.0,Calm,Calm,-,N/A,,Clear,0,2012-10-09 02:56:00
11:56 PM,33.1,30.9,92,30.22,9.0,Calm,Calm,-,N/A,,Clear,0,2012-10-09 03:56:00